Regional Weather Roundup
Issued by NWS

Home | Current Version | Previous Version | Graphics & Text | Print | Product List | Glossary On
Versions: 1 2 3 4 5 6 7 8 9 10 11 12 13 14 15 16 17 18 19 20 21 22 23 24 25 26 27 28 29 30 31 32 33 34 35 36 37 38 39 40 41 42 43 44 45 46 47 48 49 50
000
ASUS43 KIND 280759
RWRIN

WEATHER ROUNDUP FOR INDIANA
NATIONAL WEATHER SERVICE INDIANAPOLIS IN
400 AM EDT TUE JUL 28 2015

NOTE: "FAIR" INDICATES FEW OR NO CLOUDS BELOW 12,000 FEET WITH NO
SIGNIFICANT WEATHER AND/OR OBSTRUCTIONS TO VISIBILITY.

* - STATION DOES NOT REPORT WEATHER SUCH AS PRECIPITATION OR FOG.

+ - STATION NOT QUALITY CONTROLLED BY THE NATIONAL WEATHER SERVICE.
    USE DATA WITH CAUTION...ESPECIALLY DEWPOINT AND RELATIVE
    HUMIDITY OBSERVATIONS.

INZ001>003-010>013-019-020-280900-
NORTHWEST INDIANA

CITY           SKY/WX    TMP DP  RH WIND       PRES   REMARKS
KNOX *+        MOCLDY    66  63  88 CALM      29.99S
MONTICELLO +   PTCLDY    71  66  84 CALM      29.98S

$$

LMZ046-743>745-280900-
SOUTHERN LAKE MICHIGAN

STATION/POSITION TIME  TEMP    WIND        PRES    WAVE
                       AIR SEA DIR/SP/G            HT
                 (UTC) (F)     (DEG/KT/KT) (MB)    (FT)
BURNS HARBOR     0700   77     110/  9/ 14 1016.3R
MICHIGAN CITY    0700   74     100/  7/  8   N/A
5NW MICH CITY    0700   75 75  130/  6/  6   N/A     1

$$

INZ004-005-014>016-021>024-280900-
NORTH CENTRAL INDIANA

CITY           SKY/WX    TMP DP  RH WIND       PRES   REMARKS
GOSHEN         PTCLDY    67  61  81 E6        30.02S
SOUTH BEND     PTCLDY    69  63  81 CALM      30.02S
WARSAW +       PTCLDY    66  63  88 CALM      30.02S

$$

INZ006>009-017-018-025>027-280900-
NORTHEAST INDIANA

CITY           SKY/WX    TMP DP  RH WIND       PRES   REMARKS
ANGOLA *+      CLEAR     63  52  67 CALM      30.04S
FORT WAYNE     MOCLDY    68  62  81 NE3       30.02R

$$

INZ028-029-035-036-043>045-051>053-280900-
WEST CENTRAL INDIANA

CITY           SKY/WX    TMP DP  RH WIND       PRES   REMARKS
CRAWFORDSVL +  CLEAR     69  69 100 E3          N/A  FOG
GREENCASTLE +  PTCLDY    72  68  88 CALM      29.98S FOG
LAFAYETTE      PTCLDY    70  67  90 E3        29.97S
TERRE HAUTE    MOCLDY    73  71  93 E5        29.96S FOG

$$

INZ030>032-037>040-046>048-054>057-064-065-280900-
CENTRAL INDIANA

CITY           SKY/WX    TMP DP  RH WIND       PRES   REMARKS
GREENWOOD *+   PTCLDY    72  70  94 CALM      29.99R
INDIANAPOLIS   MOCLDY    75  70  84 CALM      29.98R
-EAGLE CREEK   PTCLDY    74  71  91 CALM      29.98R
KOKOMO *+      PTCLDY    68  63  83 E5        30.00S
MT COMFORT *+  PTCLDY    72 N/A N/A CALM      29.99S
SHELBYVILLE    PTCLDY    72  69  90 CALM      29.97R FOG

$$

INZ033-034-041-042-049-050-058-059-280900-
EAST CENTRAL INDIANA

CITY           SKY/WX    TMP DP  RH WIND       PRES   REMARKS
MUNCIE         PTCLDY    69  67  93 N3        30.00R

$$

INZ060-061-067>069-081>083-085>088-280900-
SOUTHWEST INDIANA

CITY           SKY/WX    TMP DP  RH WIND       PRES   REMARKS
EVANSVILLE     MOCLDY    76  72  87 CALM      29.95S
HUNTINGBURG *+ CLOUDY    77  73  88 SE5       29.95S

$$

INZ062-063-066-070>080-084-089>092-280900-
SOUTH CENTRAL AND SOUTHEAST INDIANA

CITY           SKY/WX    TMP DP  RH WIND       PRES   REMARKS
BLOOMINGTON    PTCLDY    73  71  93 CALM      29.97S
MADISON *+     PTCLDY    73  72  94 E3        29.99R
SEYMOUR +      PTCLDY    75  73  94 CALM      29.96S

$$




USA.gov is the U.S. government's official web portal to all federal, state and local government web resources and services.